Location: Great Falls
(47.5000°N, 111.3000°W)
Time: 19:56:31
(UTC-06:00)

Envisat - Visible Passes

Search period start: 12 March 2026 00:00
Search period end: 22 March 2026 00:00
Orbit: 761 x 763 km, 98.4° (Epoch: 12 March)

Date Brightness Start Highest point End Pass type
(mag) Time Alt. Az. Time Alt. Az. Time Alt. Az.
12 Mar 5.0 03:41:27 10° NNE 03:43:39 24° NE 03:43:39 24° NE visible
12 Mar 4.4 05:20:48 10° N 05:23:47 25° NW 05:23:47 25° NW visible
13 Mar 5.7 03:04:21 10° NE 03:05:31 15° NE 03:05:31 15° NE visible
13 Mar 4.1 04:42:32 10° N 04:45:40 36° NNW 04:45:40 36° NNW visible
14 Mar 4.4 04:04:38 10° NNE 04:07:32 34° NNE 04:07:32 34° NNE visible
14 Mar 4.6 05:44:42 10° NNW 05:47:40 18° NW 05:47:40 18° NW visible
15 Mar 5.1 03:27:10 10° NNE 03:29:24 23° NE 03:29:24 23° NE visible
15 Mar 4.1 05:06:06 10° N 05:09:33 31° NW 05:09:33 31° NW visible
16 Mar 5.8 02:50:27 10° NE 02:51:17 13° ENE 02:51:17 13° ENE visible
16 Mar 3.9 04:27:59 10° N 04:31:25 43° N 04:31:25 43° N visible
16 Mar 4.9 06:09:06 10° NNW 06:11:06 12° NW 06:11:33 12° WNW visible
17 Mar 4.5 03:50:15 10° NNE 03:53:17 34° NE 03:53:17 34° NE visible
17 Mar 4.3 05:29:51 10° N 05:33:25 23° NW 05:33:25 23° NW visible
18 Mar 5.2 03:12:59 10° NE 03:15:10 20° ENE 03:15:10 20° ENE visible
18 Mar 3.7 04:51:28 10° N 04:55:18 40° NW 04:55:18 40° NW visible
19 Mar 5.9 02:37:00 10° ENE 02:37:02 10° ENE 02:37:02 10° ENE visible
19 Mar 3.7 04:13:30 10° NNE 04:17:10 49° NNE 04:17:10 49° NNE visible
19 Mar 4.7 05:53:52 10° NNW 05:56:51 16° WNW 05:57:18 16° WNW visible
20 Mar 4.6 03:35:54 10° NNE 03:39:03 31° NE 03:39:03 31° NE visible
20 Mar 4.0 05:15:07 10° N 05:19:11 30° WNW 05:19:11 30° WNW visible
21 Mar 5.4 02:58:55 10° NE 03:00:55 17° ENE 03:00:55 17° ENE visible
21 Mar 3.4 04:36:54 10° N 04:41:03 52° NNW 04:41:03 52° NNW visible
21 Mar 5.0 06:18:57 10° NW 06:19:49 10° NW 06:20:41 10° WNW visible
